Clearfield, PA

7:00 PM EDT on June 25, 2017 (GMT -0400)
Clearfield-Lawrence

Weather History for KFIG - August, 2013

Change the Weather History Date:

Thursday, August 15, 2013

  Actual Average (KDUJ) Record (KDUJ)
Temperature  
Mean Temperature 58 °F -  
Max Temperature 71 °F 77 °F 90 °F (1965)
Min Temperature 44 °F 58 °F 44 °F (1962)
Degree Days  
Heating Degree Days 8    
Growing Degree Days 8 (Base 50)    
Moisture  
Dew Point 47 °F    
Average Humidity 82    
Maximum Humidity 100    
Minimum Humidity 38    
Precipitation  
Precipitation 0.00 in - - ()
Sea Level Pressure  
Sea Level Pressure 30.19 in    
Wind  
Wind Speed 3 mph (WSW)    
Max Wind Speed 9 mph    
Max Gust Speed -    
Visibility 8 miles    
Events Fog    
Averages and records for this station are not official NWS values.
T = Trace of Precipitation, MM = Missing Value Source: NWS Daily Summary

Daily Weather History Graph

Daily Weather History Graph

Search for Another Location

Airport or City:

Trip Planner

Search our weather history database for the weather conditions in past years. The results will help you decide how hot, cold, wet, or windy it might be!

Date:

Astronomy

Aug. 15, 2013 Rise Set
Actual Time 6:23 AM EDT 8:11 PM EDT
Civil Twilight 5:53 AM EDT 8:41 PM EDT
Nautical Twilight 5:18 AM EDT 9:17 PM EDT
Astronomical Twilight 4:39 AM EDT 9:55 PM EDT
Moon 3:27 PM EDT (8/15) 12:30 AM EDT (8/15)
Length of Visible Light 14h 47m
Length of Day
13h 48m
Waxing Gibbous, 64% of the Moon is Illuminated
Aug 15
Waxing Gibbous
Aug 20
Full
Aug 28
Last Quarter
Sep 5
New
Sep 12
First Quarter

Hourly Weather History & Observations

Time (EDT) Temp. Windchill Dew Point Humidity Pressure Visibility Wind Dir Wind Speed Gust Speed Precip Events Conditions
12:54 AM 50.0 °F - 46.9 °F 89% 30.15 in 10.0 mi NNW 3.5 mph - N/A   Clear
1:54 AM 48.0 °F - 46.9 °F 96% 30.15 in 10.0 mi South 3.5 mph - N/A   Clear
2:54 AM 46.9 °F - 46.9 °F 100% 30.17 in 10.0 mi SSW 3.5 mph - N/A   Clear
3:54 AM 46.9 °F - 46.0 °F 97% 30.17 in 10.0 mi South 3.5 mph - N/A   Clear
4:54 AM 45.0 °F - 45.0 °F 100% 30.17 in 10.0 mi Calm Calm - N/A   Clear
5:54 AM 45.0 °F 42.6 °F 45.0 °F 100% 30.19 in 10.0 mi SSW 4.6 mph - N/A   Partly Cloudy
6:24 AM 44.6 °F - 44.6 °F 100% 30.20 in 8.0 mi Calm Calm - N/A   Mostly Cloudy
6:43 AM 44.6 °F - 44.6 °F 100% 30.20 in 2.0 mi Calm Calm - N/A   Overcast
6:52 AM 46.4 °F - 46.4 °F 100% 30.20 in 8.0 mi Calm Calm - N/A   Mostly Cloudy
6:54 AM 46.0 °F - 46.0 °F 100% 30.20 in 8.0 mi Calm Calm - N/A   Mostly Cloudy
7:03 AM 44.6 °F - 44.6 °F 100% 30.20 in 2.5 mi Calm Calm - N/A   Overcast
7:16 AM 46.4 °F - 46.4 °F 100% 30.20 in 5.0 mi Calm Calm - N/A   Mostly Cloudy
7:31 AM 46.4 °F - 46.4 °F 100% 30.21 in 1.5 mi Calm Calm - N/A   Overcast
7:39 AM 46.4 °F - 46.4 °F 100% 30.21 in 0.2 mi Calm Calm - N/A Fog Fog
7:54 AM 46.9 °F - 46.9 °F 100% 30.22 in 0.8 mi SW 3.5 mph - N/A   Mist
8:06 AM 48.2 °F - 48.2 °F 100% 30.21 in 0.2 mi Calm Calm - N/A Fog Fog
8:35 AM 48.2 °F - 48.2 °F 100% 30.22 in 1.2 mi SSW 3.5 mph - N/A   Mostly Cloudy
8:37 AM 48.2 °F - 48.2 °F 100% 30.22 in 4.0 mi SSW 3.5 mph - N/A   Mostly Cloudy
8:54 AM 50.0 °F - 50.0 °F 100% 30.24 in 10.0 mi SW 4.6 mph - N/A   Partly Cloudy
9:54 AM 57.9 °F - 52.0 °F 81% 30.23 in 10.0 mi SW 5.8 mph - N/A   Clear
10:54 AM 63.0 °F - 48.0 °F 58% 30.22 in 10.0 mi Calm Calm - N/A   Clear
11:54 AM 66.9 °F - 46.9 °F 49% 30.21 in 10.0 mi SW 8.1 mph - N/A   Clear
12:54 PM 69.1 °F - 45.0 °F 42% 30.19 in 10.0 mi Calm Calm - N/A   Clear
1:54 PM 71.1 °F - 44.1 °F 38% 30.17 in 10.0 mi SSW 9.2 mph - N/A   Mostly Cloudy
2:54 PM 71.1 °F - 46.9 °F 42% 30.16 in 10.0 mi SW 8.1 mph - N/A   Scattered Clouds
3:54 PM 69.1 °F - 43.0 °F 39% 30.15 in 10.0 mi West 4.6 mph - N/A   Overcast
4:54 PM 70.0 °F - 44.1 °F 39% 30.13 in 10.0 mi NNW 3.5 mph - N/A   Clear
5:54 PM 71.1 °F - 46.9 °F 42% 30.14 in 10.0 mi West 5.8 mph - N/A   Clear
6:54 PM 69.1 °F - 46.9 °F 45% 30.14 in 10.0 mi West 4.6 mph - N/A   Clear
7:54 PM 64.9 °F - 50.0 °F 58% 30.15 in 10.0 mi Calm Calm - N/A   Clear
8:54 PM 57.0 °F - 54.0 °F 89% 30.17 in 10.0 mi North 6.9 mph - N/A   Clear
9:54 PM 55.9 °F - 52.0 °F 87% 30.18 in 10.0 mi North 3.5 mph - N/A   Clear
10:54 PM 54.0 °F - 52.0 °F 93% 30.18 in 10.0 mi Calm Calm - N/A   Clear
11:54 PM 52.0 °F - 51.1 °F 97% 30.18 in 10.0 mi North 4.6 mph - N/A   Clear